Regional Weather Roundup
Issued by NWS

Home | Current Version | Previous Version | Text Only | Print | Product List | Glossary On
Versions: 1 2 3 4 5 6 7 8 9 10 11 12 13 14 15 16 17 18 19 20 21 22 23 24 25 26 27 28 29 30 31 32 33 34 35 36 37 38 39 40 41 42 43 44 45 46 47 48 49 50
000
ASUS44 KMEG 271300
RWRTN
TENNESSEE HOURLY STATE WEATHER ROUNDUP
NATIONAL WEATHER SERVICE MEMPHIS TN
800 AM CDT MON APR 27 2015

TNZ002-004-019-021-049-052-054-088>092-271400-
WEST TENNESSEE

CITY           SKY/WX    TMP DP  RH WIND       PRES   REMARKS
MEMPHIS INTL   CLOUDY    52  40  63 NE13      30.00R
NWS MEMPHIS      N/A     50 N/A N/A MISG        N/A
JACKSON        CLOUDY    49  43  80 CALM      30.02R
DYERSBURG      CLOUDY    48  30  49 CALM      30.05R
UNION CITY     SUNNY     46  32  57 NE7       30.03R
PARIS          SUNNY     46  37  71 NE5       30.02R
LEXINGTON      SUNNY     46  43  87 N5        30.00R
SAVANNAH       SUNNY     46  32  57 CALM      30.01R
$$

TNZ008-025-027-028-033-062-065-066-271400-
NORTH MIDDLE TENNESSEE

CITY           SKY/WX    TMP DP  RH WIND       PRES   REMARKS
NASHVILLE      MOSUNNY   50  40  68 NE7       30.00R
CLARKSVILLE    SUNNY     50  39  66 NE7       30.00R
COOKEVILLE     SUNNY     45  45 100 NE3       29.94S
CROSSVILLE     SUNNY     46  38  73 E5        29.95R
$$

TNZ061-075-076-078-094-096-097-271400-
SOUTH MIDDLE TENNESSEE

CITY           SKY/WX    TMP DP  RH WIND       PRES   REMARKS
FAYETTEVILLE   SUNNY     46  43  87 N7        29.98R
TULLAHOMA      SUNNY     46  41  81 CALM      29.98R
WINCHESTER     CLOUDY    45  45 100 CALM      29.97R VSB 1/4
MCMINNVILLE    SUNNY     45  45 100 CALM      29.98R
COLUMBIA       SUNNY     46  32  57 CALM      29.98R
SHELBYVILLE    SUNNY     48  45  87 NW5       29.99R
$$

TNZ017-018-042-046-047-271400-
NORTHEAST TENNESSEE

CITY           SKY/WX    TMP DP  RH WIND       PRES   REMARKS
TRI CITIES     MOSUNNY   50  37  61 VRB5      29.92R
ELIZABETHTON   MOSUNNY   46  39  76 SW5       29.90S
$$

TNZ012-013-036-069-073-074-271400-
CENTRAL EAST TENNESSEE

CITY           SKY/WX    TMP DP  RH WIND       PRES   REMARKS
KNOXVILLE      MOSUNNY   51  39  63 N6        29.94R
OAK RIDGE      SUNNY     50  42  74 CALM      29.95R
GATLINBURG     SUNNY     52  39  62 VRB3      29.93R
$$

TNZ083-085-099-271400-
SOUTHEAST TENNESSEE

CITY           SKY/WX    TMP DP  RH WIND       PRES   REMARKS
CHATTANOOGA    MOSUNNY   53  44  71 NE5       29.95R
$$

SKY/WX REPORTED AS FAIR MEANS FEW OR NO CLOUDS BELOW
12 THOUSAND FEET.



USA.gov is the U.S. government's official web portal to all federal, state and local government web resources and services.